| time (UTC) | temp F | wind direction | speed knots | gust knots | rain 1hr in | rain 24hr in | rain mn in | humidity % | barometer mb |
| 20260504231537 | 66 | 248 | 1.7 | 7.8 | 0.00 | 0.00 | 0.00 | 39 | 1005.5 |
| 20260504230036 | 67 | 250 | 3.5 | 8.7 | 0.00 | 0.00 | 0.00 | 37 | 1005.2 |
| 20260504224536 | 67 | 255 | 3.5 | 7.8 | 0.00 | 0.00 | 0.00 | 39 | 1004.9 |
| 20260504223052 | 67 | 247 | 4.3 | 8.7 | 0.00 | 0.00 | 0.00 | 38 | 1004.9 |
| 20260504221534 | 67 | 252 | 5.2 | 8.7 | 0.00 | 0.00 | 0.00 | 35 | 1004.8 |
| 20260504220031 | 68 | 241 | 3.5 | 5.2 | 0.00 | 0.00 | 0.00 | 37 | 1005.0 |
| 20260504214531 | 68 | 322 | 0.9 | 5.2 | 0.00 | 0.00 | 0.00 | 37 | 1004.9 |
| 20260504213042 | 68 | 245 | 2.6 | 10.4 | 0.00 | 0.00 | 0.00 | 35 | 1005.0 |
| 20260504211533 | 67 | 240 | 2.6 | 7.8 | 0.00 | 0.00 | 0.00 | 37 | 1004.9 |
| 20260504210027 | 68 | 263 | 3.5 | 7.8 | 0.00 | 0.00 | 0.00 | 37 | 1004.8 |
| 20260504204536 | 69 | 255 | 7.0 | 13.0 | 0.00 | 0.00 | 0.00 | 35 | 1004.6 |
| 20260504203025 | 67 | 236 | 5.2 | 11.3 | 0.00 | 0.00 | 0.00 | 37 | 1004.6 |
| 20260504201521 | 67 | 248 | 5.2 | 10.4 | 0.00 | 0.00 | 0.00 | 38 | 1004.7 |
| 20260504200023 | 67 | 241 | 4.3 | 8.7 | 0.00 | 0.00 | 0.00 | 37 | 1004.8 |
| 20260504194519 | 67 | 251 | 7.0 | 13.0 | 0.00 | 0.00 | 0.00 | 37 | 1004.9 |
| 20260504193018 | 67 | 251 | 3.5 | 9.6 | 0.00 | 0.00 | 0.00 | 37 | 1004.9 |
| 20260504191515 | 67 | 165 | 4.3 | 9.6 | 0.00 | 0.00 | 0.00 | 36 | 1005.1 |
| 20260504190015 | 67 | 240 | 5.2 | 16.5 | 0.00 | 0.00 | 0.00 | 37 | 1005.2 |
| 20260504184510 | 65 | 247 | 3.5 | 11.3 | 0.00 | 0.00 | 0.00 | 36 | 1005.2 |
| 20260504183010 | 65 | 264 | 5.2 | 16.5 | 0.00 | 0.00 | 0.00 | 36 | 1005.2 |
| 20260504181512 | 65 | 244 | 2.6 | 11.3 | 0.00 | 0.00 | 0.00 | 37 | 1005.1 |
| 20260504180008 | 65 | 264 | 5.2 | 13.9 | 0.00 | 0.00 | 0.00 | 36 | 1005.2 |
| 20260504174505 | 65 | 262 | 6.1 | 12.2 | 0.00 | 0.00 | 0.00 | 36 | 1005.4 |
| 20260504173003 | 65 | 258 | 9.6 | 16.5 | 0.00 | 0.00 | 0.00 | 35 | 1005.6 |
| 20260504171503 | 65 | 251 | 7.8 | 16.5 | 0.00 | 0.00 | 0.00 | 37 | 1005.6 |
| 20260504081529 | 42 | 257 | 0.0 | 0.0 | 0.00 | 0.01 | 0.00 | 73 | 1008.6 |
| 20260504050004 | 35 | 39 | 0.0 | 0.0 | 0.00 | 0.01 | 0.00 | 86 | 1008.6 |
| 20260504044505 | 36 | 39 | 0.0 | 0.0 | 0.00 | 0.01 | 0.00 | 83 | 1008.6 |
| 20260504043100 | 36 | 39 | 0.0 | 0.0 | 0.00 | 0.01 | 0.00 | 83 | 1008.6 |
| 20260504041557 | 37 | 39 | 0.0 | 0.0 | 0.00 | 0.01 | 0.00 | 80 | 1008.6 |
| 20260504040105 | 37 | 39 | 0.0 | 0.0 | 0.00 | 0.01 | 0.00 | 77 | 1008.5 |
| 20260504034611 | 38 | 39 | 0.0 | 0.9 | 0.00 | 0.01 | 0.01 | 78 | 1008.4 |
| 20260504033050 | 38 | 39 | 0.0 | 0.9 | 0.00 | 0.01 | 0.01 | 79 | 1008.4 |
| 20260504031547 | 39 | 11 | 0.0 | 0.9 | 0.00 | 0.01 | 0.01 | 77 | 1008.1 |
| 20260504024549 | 39 | 271 | 0.0 | 1.7 | 0.00 | 0.01 | 0.01 | 76 | 1008.1 |
| 20260504023042 | 40 | 346 | 0.0 | 0.0 | 0.00 | 0.01 | 0.01 | 74 | 1008.1 |
| 20260504021544 | 41 | 268 | 0.0 | 4.3 | 0.00 | 0.01 | 0.01 | 70 | 1008.1 |
| 20260504020040 | 42 | 270 | 0.0 | 3.5 | 0.00 | 0.01 | 0.01 | 67 | 1008.0 |
| 20260504014539 | 43 | 255 | 0.0 | 2.6 | 0.00 | 0.02 | 0.01 | 66 | 1008.1 |
| 20260504013048 | 42 | 258 | 0.0 | 0.0 | 0.00 | 0.02 | 0.01 | 63 | 1008.0 |
| 20260504011541 | 43 | 258 | 0.0 | 0.9 | 0.00 | 0.02 | 0.01 | 60 | 1007.9 |
| 20260504010040 | 45 | 257 | 0.0 | 2.6 | 0.00 | 0.02 | 0.01 | 57 | 1007.8 |
| 20260504004538 | 46 | 250 | 1.7 | 3.5 | 0.00 | 0.09 | 0.01 | 57 | 1007.6 |
| 20260504003038 | 46 | 248 | 0.9 | 4.3 | 0.00 | 0.09 | 0.01 | 59 | 1007.2 |
| 20260504001543 | 46 | 252 | 0.9 | 2.6 | 0.00 | 0.09 | 0.01 | 57 | 1007.2 |
| 20260504000037 | 47 | 251 | 0.9 | 3.5 | 0.00 | 0.09 | 0.01 | 57 | 1006.9 |
| 20260503234536 | 47 | 248 | 0.9 | 5.2 | 0.00 | 0.13 | 0.01 | 54 | 1006.7 |
| 20260503233039 | 47 | 278 | 0.0 | 7.0 | 0.00 | 0.13 | 0.01 | 51 | 1006.6 |